2024-247AC (62403 NORAD) Tracking and Keplerian Element Data

This shows tracking and keplerian element data for the satellite.

Feedback or suggestion? Click here.




ElementValue
Catalog62403
Name2024-247AC
Epoch Orbit680
Epoch Day34.27247419
Epoch Year2025
RAAN125.081
Inclination44.9924
Eccentricity0.0004421
Argument of Perigee335.0611
Mean Anonmoly25.0054
Mean Motion15.19490578
Decay Rate0.00020185
L11 62403U 24247AC 25034.27247419 .00020185 00000+0 94435-3 0 9997
L22 62403 44.9924 125.0810 0004421 335.0611 25.0054 15.19490578 6805



Live tracking and technical data element details for 2024-247AC (NORAD 62403). 2024-247AC can be tracked NOW for your location showing map with azimuth and elevation plus other details from your city location.







IsCatalogInMostPopularTable: catalog: 62403, numindb: 10
Update: records affected: 1



GetName: 62403 2024-247AC

Hit Count: updated at: Sun, 18 May 2025 22:25:42 GMT